Temperature
11 11 11 11 11 11 11 11 11 11 11 11 11 11 11 11 11 11 11 11 11 11 11 11 11 11 11 11 11 11 10 11 10 10 10 10 10 10 10 10 10 10 9
10 10 10 11 11 11 11 11 11 11 11 11 11 11 11 11 11 11 11 11 11 11 11 11 11 11 11 11 11 10 10 10 10 10 10 10 10 10 10 10 10 9 9
10 10 10 10 10 10 10 10 11 10 10 10 11 11 11 11 10 11 11 11 11 11 11 11 11 11 10 10 10 10 10 10 10 10 10 10 10 10 10 9 9 9 9
9 9 9 10 10 10 10 10 10 10 10 10 10 10 10 10 10 10 10 10 10 10 10 10 10 10 10 10 10 9 9 10 10 10 10 10 10 10 9 9 9 9 9
9 9 9 9 9 9 9 9 9 9 9 9 9 10 10 10 10 10 10 10 10 10 10 10 10 10 10 10 9 9 9 9 9 9 9 9 9 9 9 9 9 9 8
8 8 8 9 9 9 9 9 9 9 9 9 9 9 9 9 9 9 9 9 9 9 10 10 10 10 10 9 9 9 9 9 9 9 9 9 9 9 9 9 9 8 8
8 8 8 8 8 8 8 8 8 8 8 8 8 8 8 9 9 9 9 9 9 9 9 9 9 9 9 9 9 9 9 9 9 9 9 9 9 9 8 8 8 8 8
7 7 7 7 7 8 8 8 8 8 8 7 7 7 7 7 8 8 9 8 9 9 9 9 9 9 9 9 9 9 9 9 9 9 8 8 8 8 8 8 8 8 7
7 7 7 7 7 7 7 7 7 7 7 7 7 7 7 7 7 7 8 8 8 8 8 8 8 8 8 8 9 9 8 8 8 8 8 8 8 8 8 8 8 7 7
6 6 6 6 6 7 7 7 7 7 7 6 6 7 7 7 6 6 7 7 7 8 8 8 8 8 8 8 8 8 8 8 8 8 8 8 7 7 7 7 7 7 7
6 6 6 6 6 6 6 6 6 6 6 6 6 6 6 6 6 6 6 6 7 7 7 7 7 7 7 8 8 8 8 8 8 7 7 7 7 7 7 7 7 7 7
5 5 5 5 5 5 6 6 6 6 6 6 6 6 6 6 6 6 6 6 6 7 7 7 7 7 7 7 7 7 7 7 7 7 7 7 7 7 7 7 7 7 7
5 4 4 4 4 5 5 5 5 5 5 5 5 5 5 6 6 6 6 6 5 6 6 6 7 7 7 7 7 7 7 7 7 7 7 7 7 7 7 6 6 6 6
4 4 4 4 4 4 4 4 5 5 5 5 5 5 5 5 5 5 5 5 5 5 5 6 6 6 6 6 6 6 7 7 7 7 7 7 6 6 6 6 6 6 6
3 3 3 3 3 4 4 4 4 4 4 4 4 4 4 5 5 5 5 5 5 4 5 5 5 5 5 6 6 6 6 6 6 6 6 6 6 6 6 6 6 6 6
3 3 3 3 3 3 3 3 3 3 4 4 4 4 4 4 4 4 4 4 5 4 4 4 5 5 5 5 5 5 5 6 6 6 6 6 6 5 5 5 5 5 5
2 2 2 2 2 2 2 2 3 3 3 3 3 4 4 4 4 4 4 4 4 4 4 4 4 4 4 5 5 5 5 5 6 6 5 5 5 5 5 5 5 5 5
2 2 2 2 2 2 2 2 2 2 2 3 3 3 3 3 3 3 3 3 3 3 3 3 4 4 4 4 4 4 5 5 5 5 5 5 5 5 5 4 4 4 4
2 2 1 1 1 1 1 1 1 2 2 2 2 3 3 3 3 3 3 3 3 3 3 3 3 3 3 4 4 4 4 4 4 4 4 4 4 4 4 4 4 4 4
1 1 1 1 1 1 1 1 1 1 1 2 2 2 2 2 2 2 2 2 2 2 2 2 2 3 3 3 3 3 3 4 4 4 4 4 4 4 4 4 4 4 3
0 0 0 0 0 0 0 0 1 1 1 1 1 1 2 2 2 2 2 2 2 2 2 2 2 2 2 2 2 2 2 3 3 3 3 3 3 3 3 3 3 3 3
-0 -0 -0 -0 -0 -0 -0 -0 0 0 1 1 1 1 1 1 1 1 1 1 1 1 1 1 1 1 1 2 2 2 2 2 2 2 2 2 2 3 3 3 2 2 2
-0 -0 -0 -1 -0 -0 -0 -1 -0 -0 0 0 0 0 1 1 1 1 1 1 1 1 1 1 1 1 1 1 1 1 1 1 1 1 1 2 2 2 2 2 2 2 2
-1 -1 -1 -1 -1 -1 -1 -1 -1 -0 -0 -0 -0 -0 0 0 0 0 0 0 0 0 1 1 1 1 1 1 1 1 1 1 1 1 1 1 1 1 2 2 2 1 1
-1 -1 -1 -1 -1 -1 -1 -1 -1 -1 -1 -1 -1 -1 -0 -0 -0 -0 -0 -0 0 0 0 0 0 0 0 0 0 0 0 0 0 1 1 0 0 1 1 1 1 1 1
-1 -2 -2 -2 -2 -2 -2 -2 -2 -2 -1 -1 -1 -1 -1 -1 -1 -1 -1 -1 -0 -0 -0 -0 -0 0 -0 0 0 0 0 0 0 0 0 -0 0 -0 -0 0 1 1 1
Wind_Speed
2 2 3 3 3 3 2 2 2 2 2 3 3 3 3 5 6 6 5 7 8 8 8 8 7 8 8 7 7 7 6 6 5 5 5 4 4 4 4 5 5 5 5
2 3 3 3 3 3 4 3 3 2 2 2 3 3 4 5 6 6 6 7 9 9 9 9 9 8 9 9 8 8 7 7 6 5 5 5 5 5 5 5 5 6 6
3 3 3 3 3 4 3 3 2 2 2 1 2 3 3 4 5 7 7 7 8 9 9 10 10 9 9 10 9 9 8 8 7 6 6 6 6 5 6 6 6 6 7
3 3 3 3 4 4 3 3 2 2 2 2 2 3 3 3 4 6 7 7 7 8 9 10 10 10 10 10 10 9 9 9 8 8 7 7 6 6 7 7 7 7 7
3 3 3 3 4 3 3 3 2 2 2 2 3 3 3 3 4 5 5 7 8 8 8 9 10 11 11 11 11 10 10 9 9 9 8 8 8 7 7 8 8 8 8
3 2 3 3 3 2 3 2 3 2 2 2 3 3 3 4 4 4 5 5 7 8 8 8 8 9 10 11 11 11 10 10 10 9 9 9 9 8 9 9 9 8 9
3 3 3 3 3 3 3 3 2 2 2 1 1 2 4 4 4 4 4 4 5 7 8 7 7 7 8 10 11 11 11 11 11 10 10 10 10 9 9 9 9 9 9
4 4 4 3 3 3 3 3 2 2 2 2 2 1 2 3 3 4 4 5 5 4 5 6 7 7 7 7 9 11 12 12 12 11 11 11 10 10 10 10 10 9 10
4 5 5 4 4 4 4 4 4 3 3 3 3 3 2 4 3 3 4 5 5 4 4 5 6 7 7 7 8 10 11 12 12 12 11 11 11 11 11 10 10 10 10
4 4 5 4 4 4 4 5 4 4 4 4 3 3 3 3 2 2 3 4 5 5 6 5 5 6 7 7 8 10 11 12 12 11 11 11 12 11 11 11 10 10 10
3 4 4 4 4 4 4 4 4 4 4 5 4 3 3 3 4 3 5 4 4 4 5 5 5 5 6 6 7 9 10 11 11 10 10 10 11 11 11 11 10 10 10
2 3 3 3 3 3 4 4 4 5 4 5 4 4 4 4 3 3 4 5 5 4 4 4 5 5 5 6 8 9 9 10 11 10 10 10 10 9 10 10 10 9 10
2 3 2 3 3 3 4 4 4 5 5 5 5 4 4 5 4 3 4 5 6 4 3 4 4 4 5 5 6 8 9 10 10 10 10 9 9 9 9 9 9 10 10
3 3 3 3 3 3 3 3 3 4 4 5 5 5 4 4 4 4 4 4 5 5 4 4 3 4 4 4 6 7 7 8 9 9 9 9 9 8 8 9 9 9 9
2 2 2 3 3 3 3 3 3 4 4 4 5 5 5 4 4 4 4 4 4 5 6 4 3 4 4 5 6 6 7 8 8 9 9 8 8 8 8 8 9 9 9
2 2 2 2 2 2 3 3 3 3 3 4 4 4 4 3 4 3 3 4 4 5 6 4 4 3 3 4 6 6 7 8 8 8 9 8 8 8 8 8 8 8 8
2 2 2 2 2 2 3 3 3 3 3 3 3 3 4 4 3 3 3 4 4 4 7 5 3 2 3 4 4 5 5 5 7 8 9 9 9 8 8 7 7 8 8
2 2 2 2 2 2 3 3 3 3 3 3 4 4 4 3 4 3 3 4 4 4 5 6 4 3 3 4 3 3 3 5 5 8 8 8 7 6 6 6 6 6 6
1 1 1 2 2 2 2 3 3 3 4 4 4 4 4 4 4 4 4 3 3 4 4 5 5 3 3 2 2 3 3 3 4 5 5 5 5 5 5 5 5 5 4
1 1 1 2 2 2 2 2 3 3 3 3 4 4 4 4 5 5 4 4 3 3 3 4 5 3 3 2 2 2 2 2 2 3 4 4 4 5 5 4 4 4 4
2 1 1 2 2 2 2 2 2 3 3 3 4 4 4 5 6 5 4 4 3 3 3 4 4 3 3 2 2 1 2 2 2 1 1 2 2 2 3 4 4 4 4
1 1 1 1 2 2 3 4 4 3 3 3 3 4 4 4 5 6 6 5 4 4 4 4 4 5 4 3 2 2 1 1 2 0 0 2 1 2 2 2 3 3 4
2 1 1 1 2 2 4 5 6 4 3 3 3 3 4 3 4 3 4 4 4 5 6 5 5 6 5 4 3 3 2 2 3 2 1 2 2 3 3 3 3 3 3
2 2 2 2 2 3 5 5 6 4 3 3 3 3 2 3 3 3 2 2 3 4 5 4 4 5 4 3 4 4 3 2 2 2 1 2 1 2 2 2 3 3 3
3 3 2 2 2 3 5 5 5 2 2 3 3 3 3 2 3 3 2 2 3 4 3 3 4 4 4 4 3 3 3 2 2 1 1 1 1 1 2 2 2 3 3
3 3 3 3 2 2 5 6 5 1 2 2 3 3 4 3 3 3 2 2 3 3 2 2 2 3 3 2 3 3 4 3 2 1 1 1 1 1 1 1 1 2 2
Wind_Direction
214 222 213 204 202 206 205 201 200 194 198 208 208 209 218 220 213 212 218 221 227 231 232 239 247 245 234 231 228 229 235 238 246 238 238 244 247 249 257 269 273 278 277
212 218 218 215 214 214 214 205 200 203 217 215 223 217 219 224 222 219 221 224 229 233 237 240 247 253 244 238 234 231 234 238 240 241 238 243 248 255 260 268 270 276 278
214 222 207 216 217 212 215 214 204 195 228 233 243 242 229 228 228 222 225 226 227 231 237 240 244 250 250 240 238 235 235 239 238 240 242 241 245 255 262 267 271 274 275
219 224 208 215 221 208 202 212 209 211 231 238 245 255 248 239 238 229 223 225 225 229 234 240 243 246 250 243 240 238 237 239 242 238 245 245 245 253 259 264 269 273 274
218 221 216 220 211 205 205 217 221 205 225 240 246 257 255 253 247 239 228 223 223 226 230 237 240 243 247 245 241 241 241 238 241 241 246 247 247 254 261 265 265 265 271
230 219 221 224 215 205 216 210 224 227 220 230 259 277 275 265 257 240 234 231 225 224 228 231 232 238 243 245 242 243 243 241 244 243 246 249 247 253 261 263 262 262 267
231 213 217 215 216 212 212 206 218 222 232 192 237 297 296 272 261 255 236 230 232 228 226 227 228 232 237 242 244 244 243 245 249 245 247 250 248 252 256 259 261 262 265
225 216 202 215 223 220 213 207 204 230 241 210 201 234 291 299 266 261 244 232 235 237 235 235 230 229 230 233 241 244 244 246 250 249 247 251 254 254 256 258 259 263 264
230 221 215 211 218 214 214 217 209 216 234 256 220 206 217 246 295 270 246 242 236 231 237 242 235 234 231 229 232 239 242 245 250 251 250 250 255 258 257 260 258 263 267
231 228 219 212 218 224 220 224 230 220 217 236 251 240 242 237 236 279 277 256 244 237 232 236 237 237 235 234 238 240 241 244 247 251 254 253 256 260 258 259 259 260 264
231 223 220 211 219 228 229 228 231 226 227 231 236 246 256 262 250 243 270 281 274 252 242 235 228 232 241 240 241 240 243 243 245 251 256 259 259 259 258 259 257 259 261
230 219 220 216 226 230 234 236 237 226 234 238 241 244 241 238 241 239 249 263 271 270 257 246 233 229 241 244 244 244 248 243 244 248 251 257 260 262 259 260 258 263 264
249 227 226 225 236 236 234 237 235 230 230 227 234 247 249 249 246 248 249 264 276 279 271 258 243 233 241 250 251 250 250 247 244 245 245 251 255 260 264 264 263 261 266
237 227 228 230 238 245 247 240 239 239 236 229 238 243 252 252 245 245 241 248 276 279 268 259 254 237 242 253 260 259 258 258 251 244 242 244 248 253 259 264 267 267 271
251 227 235 241 237 241 240 237 241 241 239 237 237 243 252 253 243 248 248 232 237 266 269 257 247 239 248 256 258 257 262 258 259 251 241 240 244 249 254 260 266 270 273
248 236 239 241 254 256 246 242 247 248 242 246 241 238 252 263 249 240 240 246 237 244 262 256 244 249 249 264 264 259 259 258 254 254 245 242 242 243 250 256 262 270 277
229 230 236 239 251 262 255 243 249 251 251 265 270 258 262 265 260 252 242 240 238 238 254 269 255 259 244 246 269 272 267 261 257 256 253 247 242 240 246 251 259 265 270
234 233 245 250 256 267 263 256 258 264 257 263 275 273 273 273 271 265 247 240 244 245 244 258 262 252 249 239 249 256 275 275 266 263 261 252 242 240 242 249 260 262 267
234 246 244 253 260 261 270 272 262 266 263 262 267 268 271 268 269 268 262 253 250 255 249 246 256 252 256 239 251 268 268 272 280 275 259 249 245 241 242 246 248 254 263
249 258 275 268 262 267 276 276 281 283 282 282 280 275 273 267 264 260 259 247 242 249 249 247 250 255 260 244 233 256 287 282 279 290 272 268 257 246 243 245 250 253 256
310 304 296 293 296 294 280 278 283 284 281 287 289 281 276 276 275 268 259 243 234 242 250 249 253 259 256 245 248 240 258 301 304 264 280 295 291 270 261 256 254 252 258
311 315 318 305 301 304 311 315 302 284 280 277 286 292 290 289 288 288 280 269 246 237 239 249 260 254 255 251 238 225 227 285 287 267 265 297 277 253 275 269 269 262 264
341 343 316 304 300 302 322 324 324 316 297 290 288 290 294 302 306 297 297 297 283 269 253 248 253 260 251 238 220 222 222 233 257 250 231 260 257 253 275 274 263 258 273
345 343 333 334 329 327 339 341 341 336 322 305 295 287 288 298 302 302 297 297 284 277 265 254 250 258 252 230 211 214 215 229 276 261 201 231 256 262 284 278 252 248 269
350 344 339 354 344 333 344 349 347 334 333 324 317 319 309 296 312 312 304 286 290 289 289 269 269 269 262 248 220 197 202 203 257 249 186 184 257 302 283 254 265 264 280
348 346 353 352 338 326 339 348 348 344 337 330 329 325 323 324 316 302 287 273 277 285 289 298 287 290 280 259 238 218 207 209 222 241 204 175 220 350 310 279 279 280 282
Height
1496 1496 1497 1498 1499 1500 1500 1501 1502 1502 1502 1503 1503 1503 1503 1503 1503 1504 1504 1505 1506 1506 1507 1507 1507 1508 1508 1508 1508 1508 1508 1508 1508 1508 1507 1507 1507 1506 1506 1505 1504 1503 1502
1493 1493 1494 1495 1495 1496 1497 1498 1498 1499 1499 1499 1499 1499 1500 1500 1500 1501 1501 1501 1502 1503 1503 1503 1504 1504 1504 1505 1505 1505 1505 1505 1505 1504 1504 1504 1504 1503 1503 1502 1501 1500 1499
1490 1490 1490 1491 1492 1493 1494 1494 1494 1495 1496 1496 1496 1496 1496 1496 1496 1497 1497 1498 1498 1499 1499 1499 1500 1500 1500 1501 1501 1501 1501 1502 1501 1501 1501 1501 1501 1500 1500 1499 1498 1497 1496
1486 1486 1487 1488 1489 1489 1490 1490 1490 1491 1491 1492 1492 1492 1492 1492 1493 1493 1493 1493 1494 1494 1494 1495 1495 1496 1496 1496 1497 1497 1497 1498 1498 1497 1497 1497 1497 1497 1496 1495 1495 1494 1493
1482 1483 1483 1484 1484 1485 1486 1486 1486 1487 1487 1488 1488 1488 1488 1488 1488 1489 1488 1488 1489 1489 1490 1490 1491 1491 1492 1492 1492 1493 1493 1494 1494 1494 1493 1493 1493 1493 1492 1492 1491 1490 1490
1478 1479 1479 1479 1480 1481 1482 1482 1482 1483 1484 1484 1484 1484 1484 1484 1484 1484 1484 1484 1484 1484 1485 1485 1486 1486 1487 1487 1488 1488 1489 1489 1490 1489 1489 1489 1489 1489 1488 1488 1487 1487 1486
1474 1474 1475 1475 1475 1476 1477 1478 1478 1479 1479 1480 1480 1480 1479 1480 1479 1479 1479 1479 1480 1480 1480 1480 1481 1482 1482 1482 1483 1484 1484 1485 1485 1485 1485 1485 1484 1485 1484 1484 1484 1483 1482
1469 1470 1470 1470 1471 1471 1472 1473 1474 1474 1474 1476 1476 1476 1475 1475 1473 1474 1474 1474 1474 1475 1475 1476 1476 1476 1477 1477 1478 1479 1479 1480 1480 1480 1480 1480 1480 1480 1480 1480 1479 1479 1478
1465 1466 1466 1466 1467 1467 1467 1468 1469 1469 1469 1471 1473 1474 1473 1471 1469 1468 1469 1469 1469 1469 1470 1470 1470 1471 1472 1472 1473 1474 1474 1475 1475 1475 1475 1476 1476 1476 1476 1475 1475 1474 1474
1461 1461 1462 1462 1462 1463 1463 1464 1465 1465 1466 1466 1468 1469 1470 1468 1467 1464 1464 1464 1465 1465 1465 1465 1466 1466 1467 1467 1468 1468 1469 1470 1471 1471 1471 1471 1471 1471 1471 1471 1470 1470 1470
1456 1457 1457 1457 1458 1458 1459 1459 1460 1461 1461 1461 1462 1463 1464 1464 1463 1462 1459 1459 1460 1460 1460 1460 1461 1462 1462 1462 1463 1463 1464 1465 1466 1466 1466 1466 1466 1466 1466 1466 1466 1465 1465
1451 1452 1452 1453 1453 1453 1454 1454 1455 1456 1456 1457 1457 1458 1459 1459 1458 1458 1456 1455 1455 1455 1456 1456 1456 1456 1457 1457 1458 1458 1459 1460 1461 1461 1461 1461 1461 1461 1461 1462 1461 1461 1460
1446 1447 1447 1448 1448 1449 1449 1450 1450 1451 1451 1452 1452 1453 1454 1454 1454 1454 1453 1452 1451 1450 1451 1451 1451 1452 1452 1452 1452 1453 1453 1454 1455 1456 1456 1456 1456 1456 1456 1457 1457 1456 1456
1443 1443 1444 1444 1444 1444 1445 1445 1445 1446 1447 1447 1447 1448 1448 1448 1449 1449 1449 1449 1447 1446 1446 1446 1446 1447 1447 1447 1447 1448 1448 1449 1450 1450 1451 1451 1452 1452 1452 1452 1452 1452 1451
1439 1440 1440 1440 1440 1440 1440 1440 1441 1442 1442 1442 1442 1442 1443 1443 1444 1444 1445 1445 1445 1442 1440 1441 1442 1442 1443 1443 1443 1443 1443 1444 1444 1445 1446 1446 1447 1447 1448 1448 1447 1447 1447
1436 1435 1436 1436 1435 1436 1436 1436 1437 1437 1437 1437 1437 1437 1437 1438 1438 1439 1439 1440 1440 1439 1437 1436 1437 1437 1438 1438 1438 1439 1439 1439 1439 1440 1441 1441 1442 1442 1443 1443 1443 1443 1442
1432 1432 1432 1432 1432 1432 1432 1432 1432 1432 1432 1432 1432 1432 1432 1433 1433 1434 1434 1434 1434 1434 1433 1431 1433 1433 1433 1433 1433 1434 1434 1433 1434 1435 1435 1436 1436 1437 1438 1439 1439 1439 1438
1429 1429 1428 1428 1428 1428 1428 1428 1428 1428 1428 1428 1428 1428 1428 1428 1428 1429 1429 1429 1428 1428 1428 1427 1427 1428 1428 1428 1428 1428 1428 1428 1429 1430 1430 1431 1431 1432 1433 1434 1434 1434 1434
1426 1425 1425 1425 1425 1425 1425 1425 1425 1425 1425 1425 1425 1424 1424 1424 1424 1424 1424 1423 1423 1423 1423 1423 1422 1423 1423 1424 1423 1423 1423 1424 1424 1425 1425 1426 1427 1429 1429 1430 1430 1430 1429
1422 1422 1422 1422 1423 1422 1422 1422 1422 1422 1422 1421 1421 1421 1420 1420 1420 1420 1419 1419 1419 1419 1419 1419 1418 1418 1419 1419 1419 1419 1419 1419 1420 1421 1421 1422 1423 1425 1425 1426 1426 1426 1425
1420 1420 1420 1420 1420 1419 1419 1419 1419 1419 1419 1418 1417 1417 1416 1416 1416 1415 1415 1414 1414 1414 1414 1414 1414 1414 1414 1415 1415 1415 1415 1415 1416 1417 1417 1418 1419 1420 1421 1421 1421 1421 1421
1419 1418 1417 1417 1417 1417 1417 1417 1417 1416 1415 1415 1413 1412 1412 1412 1411 1411 1411 1410 1410 1410 1410 1410 1410 1410 1410 1411 1412 1412 1412 1412 1412 1414 1414 1414 1416 1416 1417 1417 1417 1418 1418
1417 1416 1416 1415 1415 1415 1415 1415 1414 1414 1412 1411 1410 1409 1408 1407 1407 1406 1406 1405 1406 1407 1408 1408 1408 1407 1407 1408 1409 1409 1409 1409 1410 1410 1411 1411 1412 1413 1413 1414 1414 1414 1414
1415 1414 1414 1413 1413 1412 1412 1412 1411 1411 1410 1409 1407 1406 1405 1404 1404 1403 1402 1402 1402 1403 1404 1404 1404 1404 1404 1404 1405 1406 1406 1407 1407 1408 1408 1408 1408 1409 1410 1410 1411 1411 1411
1414 1413 1412 1411 1411 1410 1410 1409 1409 1408 1407 1406 1405 1404 1403 1402 1401 1401 1400 1399 1399 1400 1400 1401 1400 1400 1401 1401 1402 1403 1403 1404 1403 1404 1405 1405 1405 1406 1406 1407 1407 1408 1408
1413 1412 1411 1410 1409 1408 1407 1407 1407 1406 1405 1403 1402 1402 1401 1400 1399 1399 1398 1397 1397 1396 1397 1397 1397 1397 1397 1398 1398 1399 1399 1400 1400 1401 1401 1402 1402 1403 1403 1404 1404 1405 1405